HK4D-13 Weather Reports


time (UTC)temp
F
wind
direction
speed
knots
gust
knots
rain 1hr
in
rain 24hr
in
rain mn
in
humidity
%
barometer
mb
20260504150755 62 10 3.5 0.0 0.00 0.00 0.00 84 1015.0
20260504140751 59 330 0.9 0.0 0.00 0.00 0.00 93 1015.0
20260504130747 56 190 3.5 0.0 0.00 0.00 0.00 98 1016.0
20260504081717 58 40 4.3 0.0 0.00 0.00 0.00 96 1015.0
20260504080716 58 40 4.3 0.0 0.00 0.00 0.00 96 1015.0
20260504050659 60 10 4.3 0.0 0.04 0.00 0.00 93 1017.0
20260504045659 60 360 3.5 0.0 0.00 0.00 0.00 92 1017.0
20260504044658 60 360 3.5 0.0 0.01 0.00 0.00 92 1017.0
20260504043656 60 360 3.5 0.0 0.00 0.00 0.00 93 1017.0
20260504042652 60 360 3.5 0.0 0.00 0.00 0.00 92 1018.0
20260504041650 60 360 3.5 0.0 0.01 0.00 0.00 92 1018.0
20260504040650 61 10 3.5 0.0 0.00 0.00 0.00 94 1018.0
20260504035649 61 10 3.5 0.0 0.00 0.00 0.00 94 1018.0
20260504034649 61 10 3.5 0.0 0.01 0.00 0.00 94 1018.0
20260504033647 61 10 3.5 0.0 0.00 0.00 0.00 94 1018.0
20260504032647 61 10 3.5 0.0 0.00 0.00 0.00 94 1018.0
20260504031641 61 10 3.5 0.0 0.00 0.00 0.00 94 1018.0
20260504030641 61 10 3.5 0.0 0.00 0.00 0.00 94 1018.0
20260504025639 61 10 2.6 0.0 0.00 0.00 0.00 94 1018.0
20260504024639 61 10 2.6 0.0 0.00 0.00 0.00 94 1018.0
20260504023638 61 10 2.6 0.0 0.00 0.00 0.00 94 1018.0
20260504022638 61 10 2.6 0.0 0.00 0.00 0.00 94 1017.0
20260504021635 61 10 2.6 0.0 0.00 0.00 0.00 94 1017.0
20260504020635 61 10 2.6 0.0 0.00 0.00 0.00 94 1017.0
20260504015634 63 350 4.3 0.0 0.00 0.00 0.00 88 1017.0
20260504014632 63 350 4.3 0.0 0.00 0.00 0.00 88 1017.0
20260504013631 63 350 4.3 0.0 0.00 0.00 0.00 88 1017.0
20260504012624 63 350 4.3 0.0 0.00 0.00 0.00 88 1016.0
20260504011624 63 350 4.3 0.0 0.00 0.00 0.00 88 1016.0
20260504010622 63 350 4.3 0.0 0.00 0.00 0.00 88 1016.0
20260504005621 65 350 7.0 0.0 0.00 0.00 0.00 77 1016.0
20260504004620 65 350 7.0 0.0 0.00 0.00 0.00 77 1016.0
20260504003619 65 350 7.0 0.0 0.00 0.00 0.00 77 1016.0
20260504002619 65 350 7.0 0.0 0.00 0.00 0.00 77 1015.0
20260504001618 65 350 7.0 0.0 0.00 0.00 0.00 77 1015.0
20260504000618 65 350 7.0 0.0 0.00 0.00 0.00 77 1015.0
20260503235618 69 340 4.3 0.0 0.00 0.00 0.00 64 1015.0
20260503234617 69 340 4.3 0.0 0.00 0.00 0.00 64 1015.0
20260503233617 69 340 4.3 0.0 0.00 0.00 0.00 64 1015.0
20260503232616 69 340 4.3 0.0 0.00 0.00 0.00 64 1014.0
20260503231616 69 340 4.3 0.0 0.00 0.00 0.00 64 1014.0
20260503230614 69 340 4.3 0.0 0.00 0.00 0.00 64 1014.0
20260503225614 72 10 8.7 0.0 0.00 0.00 0.00 53 1014.0
20260503224612 72 10 8.7 0.0 0.00 0.00 0.00 53 1013.0
20260503223611 72 10 8.7 0.0 0.00 0.00 0.00 53 1013.0
20260503222608 72 10 8.7 0.0 0.00 0.00 0.00 53 1012.0
20260503221606 72 10 8.7 0.0 0.00 0.00 0.00 53 1012.0
20260503220605 72 10 8.7 0.0 0.00 0.00 0.00 53 1012.0
20260503215604 72 10 10.4 0.0 0.00 0.00 0.00 56 1012.0
20260503214602 72 10 10.4 0.0 0.00 0.00 0.00 56 1012.0
20260503213602 72 10 10.4 0.0 0.00 0.00 0.00 56 1012.0
20260503212602 71 10 10.4 0.0 0.00 0.00 0.00 58 1012.0
20260503211601 71 10 10.4 0.0 0.00 0.00 0.00 58 1012.0
20260503210600 71 10 10.4 0.0 0.00 0.00 0.00 57 1012.0
20260503205559 72 10 9.6 0.0 0.00 0.00 0.00 56 1012.0
20260503204559 72 10 9.6 0.0 0.00 0.00 0.00 56 1012.0
20260503203558 73 10 9.6 0.0 0.00 0.00 0.00 55 1012.0
20260503202557 72 10 9.6 0.0 0.00 0.00 0.00 56 1012.0
20260503201556 72 10 9.6 0.0 0.00 0.00 0.00 56 1012.0
20260503200556 70 0 5.2 0.0 0.00 0.00 0.00 59 1012.0
20260503195555 70 0 5.2 0.0 0.00 0.00 0.00 59 1012.0
20260503194555 71 0 5.2 0.0 0.00 0.00 0.00 58 1012.0
20260503193554 70 0 5.2 0.0 0.00 0.00 0.00 59 1012.0
20260503192553 70 0 5.2 0.0 0.00 0.00 0.00 59 1012.0
20260503191553 70 0 5.2 0.0 0.00 0.00 0.00 59 1012.0
20260503190552 70 0 5.2 0.0 0.00 0.00 0.00 59 1012.0
20260503185551 70 140 4.3 0.0 0.00 0.00 0.00 60 1012.0
20260503184551 70 140 4.3 0.0 0.00 0.00 0.00 60 1012.0
20260503183548 70 140 4.3 0.0 0.00 0.00 0.00 59 1012.0
20260503182543 70 140 4.3 0.0 0.00 0.00 0.00 59 1013.0
20260503181542 70 140 4.3 0.0 0.00 0.00 0.00 60 1013.0
20260503180541 70 140 4.3 0.0 0.00 0.00 0.00 60 1013.0
20260503175540 70 0 4.3 0.0 0.00 0.00 0.00 61 1013.0
20260503174540 70 0 4.3 0.0 0.00 0.00 0.00 61 1014.0
20260503173537 69 0 4.3 0.0 0.00 0.00 0.00 62 1014.0
20260503172537 69 0 4.3 0.0 0.00 0.00 0.00 63 1015.0
20260503171536 69 0 4.3 0.0 0.00 0.00 0.00 64 1015.0
20260503170535 68 0 4.3 0.0 0.00 0.00 0.00 66 1015.0